Regional Weather Roundup
Issued by NWS

Home | Current Version | Previous Version | Text Only | Print | Product List | Glossary On
Versions: 1 2 3 4 5 6 7 8 9 10 11 12 13 14 15 16 17 18 19 20 21 22 23 24 25 26 27 28 29 30 31 32 33 34 35 36 37 38 39 40 41 42 43 44 45 46 47 48 49 50
000
ASHW40 PHFO 272212
RWRHI

WEATHER ROUNDUP FOR HAWAII
NATIONAL WEATHER SERVICE HONOLULU HI
1200 PM HST WED JUL 27 2016

THIS IS AN AUTOMATED REPORT THAT HAS NOT BEEN QUALITY CONTROLLED.

NOTE..."FAIR" INDICATES FEW OR NO CLOUDS BELOW 12,000 FEET WITH NO
SIGNIFICANT WEATHER AND/OR OBSTRUCTIONS TO VISIBILITY.

* - THESE SITES REPORT LIMITED FIELDS

HIZ001>004-272300-
KAUAI-NIIHAU-

CITY           SKY/WX    TMP DP  RH WIND       PRES   REMARKS
LIHUE APT      MOSUNNY   85  70  60 NE13      30.07S
PORT ALLEN*      N/A     88 N/A N/A E23G36      N/A
POIPU*           N/A     86 N/A N/A NE10G22     N/A
PRINCEVILLE*     N/A     82 N/A N/A SE12G20     N/A
KOKOLE POINT*  NOT AVBL
MOLOAA DAIRY*    N/A     84  72  65 E12G18      N/A
WAIMEA HTS*    NOT AVBL
PUU OPAE*      NOT AVBL
PUU LUA*       NOT AVBL
MAKAHA RIDGE*  NOT AVBL
$$

HIZ005>011-272300-
OAHU-

CITY           SKY/WX    TMP DP  RH WIND       PRES   REMARKS
HONOLULU       MOSUNNY   84  67  56 NE18G26   30.01F
KALAELOA       SUNNY     89  66  46 E14G21    30.02F HX  91
KANEOHE MCB    MOSUNNY   84  72  65 NE10      30.02S
WHEELER FIELD  FAIR      83  68  61 E10G20    30.04
BELLOWS*       NOT AVBL
KAHUKU*        NOT AVBL
WHEELER*       NOT AVBL
WAIANAE HARBOR NOT AVBL
DILLINGHAM*      N/A     91  70  49 MISG        N/A  HX  97
KAHUKU TRN*      N/A     84  70  61 W13G28      N/A
KAWAILOA*        N/A     79  66  65 E10G25      N/A
KII*             N/A     84  72  65 E18G26      N/A
MAKUA RANGE*     N/A     88  72  58 E6G18       N/A  HX  94
OAHU FOREST NW NOT AVBL
SCHOFIELD BRK*   N/A     81  66  61 MISG        N/A
SCHOFIELD S*   NOT AVBL
WAIANAE VLY*   NOT AVBL
KUAOKALA*      NOT AVBL
HONOULIUULI*   NOT AVBL
MOKUOLOE IS*   NOT AVBL
PALEHUA*       NOT AVBL
WAIAWA PHB*    NOT AVBL
$$

HIZ012>013-272300-
MOLOKAI-

CITY           SKY/WX    TMP DP  RH WIND       PRES   REMARKS
MOLOKAI AIRPT  SUNNY     87  68  52 NE18G31   30.01F HX  90
KALAUPAPA      NOT AVBL
MAKAPULAPAI*   NOT AVBL
MOLOKAI 1*     NOT AVBL
PUU ALII*      NOT AVBL
$$

HIZ016-272300-
KAHOOLAWE-

CITY           SKY/WX    TMP DP  RH WIND       PRES   REMARKS
KAHOOLAWE*     NOT AVBL
HAKIOAWA*      NOT AVBL
HONOKANAIA*      N/A     88  65  46 NE20G40   29.93F HX  90
KANELOA*         N/A     82  68  61 NE21G38   30.07F
KEALIALALO*    NOT AVBL
LUA MAKIKA*    NOT AVBL
$$

HIZ014>015-272300-
LANAI-

CITY           SKY/WX    TMP DP  RH WIND       PRES   REMARKS
LANAI CITY     CLOUDY    80  69  69 NE12      30.05F
LANAI 1*       NOT AVBL
$$

HIZ017>028-272300-
MAUI-

CITY           SKY/WX    TMP DP  RH WIND       PRES   REMARKS
KAHULUI        MOSUNNY   89  70  53 NE26G35   29.99F HX  94
KAPALUA-W MAUI MOSUNNY   84  68  58 NE14G23   30.01F
HANA AIRPORT     N/A     84  72  65 NE8       30.06F
HANA*            N/A     82 N/A N/A NE12        N/A
HALEAKALA SUMM   N/A     55  30  38 E44         N/A
MAALAEA BAY*   NOT AVBL
HALEAKALA*     NOT AVBL
KAUPO GAP*     NOT AVBL
KULA 1*          N/A     79  37  22 NE7G20      N/A
$$

HIZ023>026-272300-
BIG ISLAND OF HAWAII COAST AND LOWER SLOPES-

CITY           SKY/WX    TMP DP  RH WIND       PRES   REMARKS
KAILUA KONA    MOSUNNY   87  74  64 S17       29.94F HX  95
HILO           MOSUNNY   85  72  65 N8        30.02F HX  91
HONOKAA*         N/A     79 N/A N/A VRB1        N/A
KAWAIHAE MWT*    N/A     86 N/A N/A W13         N/A
KAWAIHAE*      NOT AVBL
SOUTH POINT*     N/A     79 N/A N/A N25G36      N/A
UPOLU AIRPORT*   N/A    N/A N/A N/A NE25G35     N/A
KAMUELA*       CLOUDY    77  64  65 NE28G39   30.07R
HAKALAU*         N/A     71  49  46 SE5G12      N/A
KALOKO-HONOKO* NOT AVBL
PALI 2*          N/A     82  61  47 S21G31      N/A
KEALAKOMO*       N/A     90  66  45 NE23G38     N/A  HX  92
KAUPULEHU*     NOT AVBL
KAPAPALA*        N/A     85  67  55 SE8G16      N/A
LOWER KAHUKU*  NOT AVBL
PUHE CS*       NOT AVBL
PUHO CS*       NOT AVBL
PTA KEAMUKU*     N/A     79  63  57 CALM        N/A
WAIKOLOA*      NOT AVBL
$$

HIZ027>028-272300-
BIG ISLAND OF HAWAII INTERIOR AND SUMMMITS-

CITY           SKY/WX    TMP DP  RH WIND       PRES   REMARKS
BRADSHAW FIELD SUNNY     81  38  21 SE14G33   30.32
MK VISITOR CEN   N/A     59  30  33 E16         N/A
MAUNA KEA*       N/A     39  19  45 S49G62      N/A  WCI  25
MAUNA LOA*     NOT AVBL
MAUNA LOA 1*   NOT AVBL
PTA KIPUKA*      N/A     81  36  19 E17G29      N/A
PTA RANGE 17*    N/A    N/A N/A N/A SE20G29     N/A
PTA WEST*        N/A     73  54  49 W14G21      N/A
NENE CABIN*    NOT AVBL
AHUMOA*        NOT AVBL
PTA PORTABLE*  NOT AVBL
PUU MALI*        N/A     72  36  26 E20G33      N/A
$$

HIC003-272300-
NORTHWEST ISLANDS-

CITY           SKY/WX    TMP DP  RH WIND       PRES   REMARKS
MIDWAY ISLAND  PTSUNNY   81  70  69 E14       30.12F
MIDWAY NOS*    NOT AVBL
FRENCH FRIGATE NOT AVBL
$$

PHZ110>124-180-272300-
BUOY REPORTS

STATION/POSITION TIME  TEMP    WIND        PRES    WAVE   SWELL
                       AIR SEA DIR/SP/G            HT/PER HT/DIR
                 (UTC) (F)     (DEG/KT/KT) (MB)    (FT/S) (FT/D)
BUOY 51001       2100   81 81  110/  8/ 12 1016.0R
BUOY 51101       2150   79 79   90/ 12/ 14 1018.4R   4/ 9   3/120
BUOY 51100       NOT AVBL
BUOY 51002       2150   82 82   90/ 14/ 17 1014.2S   7/ 7   5
BUOY 51003       2150   81 82   60/ 14/ 17 1014.8F   5/ 7   3/100
BUOY 51004       2150   81 81   70/ 17/ 21 1014.1F   7/ 8   3/150
BARBERS PT BUOY  NOT AVBL
WAIMEA BAY BUOY  2104      80                N/A     4/ 8
KAILUA BAY BUOY  2111      80                N/A     6/ 6   2/130
LANAI BUOY       2115      82                N/A     2/13   2/200
BARBERS PT 2     NOT AVBL
PAUWELA MAUI     2139      80                N/A     5/ 7
HILO             2112      80                N/A     6/ 8   2/120
KANEOHE BAY BUOY 2136      79                N/A     5/ 6
HANALEI KAUAI    NOT AVBL
KAHULUI HARBOR   2100   80 81   30/ 19/ 24 1016.3F
HONOLULU HARBOR  2100   84 80   60/  6/ 10 1017.1F
KILO NALU        NOT AVBL
HILO HARBOR      2100   82 79   20/  8/ 10 1016.7F
MOKUOLOE         2100   81 82   60/ 14/ 16 1017.4F
NAWILIWILI       2100   80 81   60/ 11/ 15 1017.9F
WHOTS BUOY       NOT AVBL
BUOY 51028       NOT AVBL
$$

......................KEY........................................
  SKY/WX - SKY CONDITIONS/PRESENT WEATHER
  TMP    - TEMPERATURE IN FAHRENHEIT
  DWPT   - DEWPOINT IN FAHRENHEIT
  RH     - RELATIVE HUMIDITY IN PERCENT
  WIND   - DIRECTION AND SPEED /MPH FOR ISLANDS...KTS FOR BUOYS/
  PRES   - MEAN SEA LEVEL PRESSURE IN INCHES OF HG
  VSB    - VISIBILITY IN MILES
  HX     - HEAT INDEX
  WCI    - WIND CHILL INDEX
  VRB    - VARIABLE WIND DIRECTION
  N/A    - NOT AVAILABLE




USA.gov is the U.S. government's official web portal to all federal, state and local government web resources and services.